Location: ?
(35.4064°N, 139.3593°E)
Time: 09:02:48
(UTC+00:00)

ATLAS 5 CENTAUR R/B - Pass Details

Date: 18 April 2024
Orbit: 421 x 1169 km, 63.3° (Epoch: 19 May)

Event Time Altitude Azimuth Distance (km) Brightness Sun altitude
Rises 19:22:55 0° 320° (NW) 3,197 5.0 -9.0°
Reaches altitude 10° 19:25:13 10° 313° (NW) 2,382 4.3 -8.6°
Maximum altitude 19:30:28 43° 243° (WSW) 1,266 2.7 -7.6°
Drops below altitude 10° 19:36:46 10° 174° (S) 2,848 4.8 -6.4°
Sets 19:39:45 0° 169° (SSE) 3,888 5.6 -5.8°
